Flag for U.S.A. Weather past 2 weeks in Birmingham, Alabama, U.S.A.

Now
50 °F

Overcast.


Feels Like: 48 °F
Forecast: 46 / 60 °F
Wind: 6 mph from Southeast

Location: Birmingham International Airport

Current Time: Mar 1, 2015 at 9:48:58 AM

Latest Report: Mar 1, 2015 at 8:53 AM


Visibility: 10 mi

Pressure: 30.42 "Hg

Humidity: 80%

Dew point: 44 °F

Location of BirminghamLocation

Historic Weather in Birmingham — Graph

°F

Birmingham temperature yesterday

Maximum temperature yesterday: 63 °F (at 2:53 PM)
Minimum temperature yesterday: 31 °F (at 12:53 AM)
Average temperature yesterday: 48 °F

Past Weeks' High & Low Weather Summary

 TemperatureHumidityPressure
High63 °F (Feb 14, 3:53 PM)100% (Feb 21, 10:03 PM)30.56 "Hg (Feb 21, 10:03 PM)
Low14 °F (Feb 19, 6:53 AM)18% (Feb 15, 1:53 PM)29.69 "Hg (Feb 16, 3:53 PM)
Average37 °F63%30.20 "Hg
* Reported Feb 14 8:53 AM — Mar 1 8:53 AM, Birmingham, Weather by CustomWeather, © 2015

Note: Actual official high and low records may vary slightly from our data, if they occured in-between our weather recording intervals... More about our weather records

Advertising

Birmingham weather history for previous 24 hours

 ConditionsComfort  
Time TempWeatherWind HumidityBarometerVisibility
8:53 AM
Sun, Mar 1
50 °FOvercast.6 mph80%30.42 "Hg10 mi
7:53 AM49 °FOvercast.8 mph84%30.43 "Hg10 mi
6:53 AM49 °FOvercast.6 mph80%30.43 "Hg10 mi
5:53 AM49 °FOvercast.6 mph80%30.41 "Hg10 mi
4:53 AM50 °FOvercast.10 mph77%30.39 "Hg10 mi
3:53 AM50 °FOvercast.9 mph77%30.38 "Hg10 mi
2:53 AM50 °FOvercast.8 mph77%30.39 "Hg10 mi
1:53 AM50 °FOvercast.12 mph74%30.41 "Hg10 mi
12:53 AM50 °FMostly cloudy.8 mph71%30.43 "Hg10 mi
11:53 PM
Sat, Feb 28
52 °FOvercast.8 mph66%30.45 "Hg10 mi
10:53 PM54 °FOvercast.13 mph64%30.45 "Hg10 mi
9:53 PM55 °FOvercast.9 mph53%30.45 "Hg10 mi
8:53 PM56 °FOvercast.6 mph47%30.45 "Hg10 mi
7:53 PM55 °FPassing clouds.5 mph44%30.43 "Hg10 mi
6:53 PM53 °FPassing clouds.No wind45%30.42 "Hg10 mi
5:53 PM58 °FPassing clouds.3 mph33%30.41 "Hg10 mi
4:53 PM61 °FPassing clouds.9 mph27%30.40 "Hg10 mi
3:53 PM63 °FPassing clouds.6 mph24%30.40 "Hg10 mi
2:53 PM63 °FSunny.7 mph25%30.40 "Hg10 mi
1:53 PM60 °FPassing clouds.6 mph31%30.42 "Hg10 mi
12:53 PM58 °FScattered clouds.9 mph35%30.46 "Hg10 mi
11:53 AM52 °FPartly sunny.7 mph41%30.50 "Hg10 mi
10:53 AM49 °FPartly sunny.10 mph44%30.52 "Hg10 mi
9:53 AM46 °FPartly sunny.7 mph46%30.54 "Hg10 mi
Weather by CustomWeather, © 2015

See weather overviewHow to use our weather pages